Starlink 6182

operational
NORAD ID: 56878 Int'l Des: 2023-083 Owner: SPXS Country: US Constellation: starlink
LEOCIRCULAR

About Starlink 6182

Description loading...

Live Position

Loading 3D Globe...

Upcoming Passes

Altitude History

Altitude vs Time

uPlot chart will show altitude changes over time

Two-Line Element Set

1 56878U 23083C 26034.96987219 .00001725 00000-0 14269-3 0 9996
2 56878 43.0008 265.3847 0000773 239.4153 120.6613 15.02540505146591
Epoch: Feb 3, 2026 • Age: 24 hours

Current Status

Altitude 571.8 km
Velocity 7.58 km/s
Sub-Earth Point -42.91°S, 45.6°E
Launch Date Jun 12, 2023
Age 2.6 years
Type internet

Technical Details

Classification Payload
Mass 305.00 kg
Dry Mass 290.00 kg
Total Mass 305.00 kg
Length 0.20 m
Diameter 2.80 m
Span 9.00 m
Shape Box + pan
Manufacturer SPXS
Bus Type Starlink
Phase Status In Orbit
Owner/State SPXS/US

Large Constellations

Loading constellations...